This demonstration page uses our WeatherBlox Daily Observations layout. Learn more.

Left ArrowRight Arrow

44.89941, -97.11507

Hourly Observations for November 30, 2019

Temp ( °F °C ) Dew Point ( °F °C ) Humidity (%) Winds ( mph kmh ) Pressure ( in mb ) Visibility ( mi km ) Precip ( " mm )
12:05 am 00:05 Cloudy with Light Snow 29 -1.7 26 -3.3 89 89 E 13 20 29.93 1014 3 5 0.00 0.00
12:25 am 00:25 Cloudy with Light Snow 29 -1.7 26 -3.3 89 89 E 14 22 29.91 1013 3 4 0.00 0.00
12:34 am 00:34 Cloudy with Mist and Fog 29 -1.7 26 -3.3 89 89 E 14 22 29.91 1013 3 5 0.00 0.00
12:53 am 00:53 Cloudy with Light Wintry Mix 29 -1.7 26 -3.3 89 89 E 15 24 29.86 1011 4 6 0.00 0.00
1:26 am 01:26 Cloudy with Mist and Fog 29 -1.7 27 -2.8 92 92 E 16 26 29.86 1011 4 6 0.01 0.25
1:53 am 01:53 Cloudy 29 -1.7 27 -2.8 92 92 E 14 22 29.81 1010 8 13 0.01 0.25
2:14 am 02:14 Cloudy with Light Snow 29 -1.7 27 -2.8 92 92 E 17 28 29.82 1010 2 3 0.00 0.00
2:24 am 02:24 Cloudy with Light Snow 29 -1.7 27 -2.8 92 92 E 16 26 29.81 1010 1 2 0.00 0.00
2:46 am 02:46 Cloudy with Light Snow 29 -1.7 27 -2.8 92 92 E 17 28 29.80 1009 2 3 0.00 0.00
2:50 am 02:50 Cloudy with Light Snow 28 -2 27 -3 93 93 E 16 26 29.79 1009 3 5 0.00 0.00
2:53 am 02:53 Cloudy with Light Snow 29 -1.7 27 -2.8 92 92 E 18 30 29.75 1008 5 8 0.00 0.00
3:53 am 03:53 Cloudy with Mist and Fog 30 -1.1 27 -2.8 88 88 E 13 20 29.75 1008 5 8 0.00 0.00
4:02 am 04:02 Cloudy with Light Freezing Rain 30 -1.1 28 -2.2 92 92 E 15 24 29.77 1008 3 4 0.00 0.00
4:09 am 04:09 Cloudy with Light Snow 30 -1.1 28 -2.2 92 92 E 17 28 29.75 1007 2 3 0.01 0.25
4:16 am 04:16 Windy with Snow Likely 30 -1.1 28 -2.2 92 92 E 21 33 29.73 1007 2 3 0.01 0.25
4:24 am 04:24 Cloudy with Light Snow 30 -1.1 28 -2.2 92 92 E 17 28 29.70 1006 2 2 0.01 0.25
4:35 am 04:35 Windy with Snow Likely 30 -1.1 28 -2.2 92 92 E 20 31 29.69 1005 1 1 0.03 0.76
4:46 am 04:46 Mostly Cloudy with Snow 30 -1.1 28 -2.2 92 92 E 14 22 29.72 1006 1 1 0.05 1.27
4:53 am 04:53 Mostly Cloudy with Snow 30 -1.1 29 -1.7 96 96 E 15 24 29.69 1006 1 1 0.06 1.52
5:09 am 05:09 Cloudy with Light Snow 30 -1.1 28 -2.2 92 92 E 15 24 29.70 1006 2 2 0.00 0.00
5:14 am 05:14 Cloudy with Light Snow 30 -1.1 28 -2.2 92 92 E 18 30 29.69 1005 3 5 0.00 0.00
5:26 am 05:26 Windy with Snow Likely 30 -1.1 27 -2.8 88 88 E 22 35 29.68 1005 3 4 0.01 0.25
5:40 am 05:40 Windy with Snow Likely 30 -1.1 27 -2.8 88 88 E 24 39 29.67 1005 1 2 0.01 0.25
5:51 am 05:51 Windy with Snow Likely 28 -2 27 -3 93 93 E 22 35 29.65 1004 1 2 0.01 0.25
5:53 am 05:53 Windy with Snow Likely 29 -1.7 27 -2.8 92 92 E 22 35 29.61 1003 1 2 0.01 0.25
5:56 am 05:56 Windy with Snow Likely 29 -1.7 27 -2.8 92 92 E 20 31 29.65 1004 2 2 0.00 0.00
6:05 am 06:05 Cloudy with Light Snow 29 -1.7 27 -2.8 92 92 E 18 30 29.66 1004 2 2 0.01 0.25
6:21 am 06:21 Cloudy with Light Snow 29 -1.7 27 -2.8 92 92 E 16 26 29.66 1004 1 2 0.01 0.25
6:25 am 06:25 Cloudy with Light Snow 29 -1.7 27 -2.8 92 92 E 17 28 29.66 1004 2 2 0.01 0.25
6:32 am 06:32 Windy with Snow Likely 29 -1.7 27 -2.8 92 92 E 24 39 29.65 1004 2 3 0.01 0.25
6:53 am 06:53 Cloudy with Light Snow 29 -1.7 27 -2.8 92 92 E 16 26 29.60 1003 1 2 0.02 0.51
7:09 am 07:09 Windy with Snow Likely 29 -1.7 27 -2.8 92 92 E 21 33 29.62 1003 2 3 0.01 0.25
7:16 am 07:16 Windy with Snow Likely 29 -1.7 27 -2.8 92 92 E 24 39 29.62 1003 2 3 0.01 0.25
7:24 am 07:24 Windy with Snow Likely 29 -1.7 27 -2.8 92 92 E 20 31 29.62 1003 2 3 0.01 0.25
7:30 am 07:30 Windy with Snow Likely 29 -1.7 27 -2.8 92 92 E 23 37 29.61 1003 2 3 0.01 0.25
7:45 am 07:45 Cloudy with Light Snow 29 -1.7 27 -2.8 92 92 E 18 30 29.61 1003 3 5 0.01 0.25
7:53 am 07:53 Cloudy with Mist and Fog 29 -1.7 27 -2.8 92 92 E 20 31 29.57 1001 5 8 0.01 0.25
8:11 am 08:11 Cloudy with Light Snow 29 -1.7 27 -2.8 92 92 E 16 26 29.60 1002 2 3 0.00 0.00
8:24 am 08:24 Cloudy with Light Snow 29 -1.7 27 -2.8 92 92 E 18 30 29.60 1002 1 2 0.01 0.25
8:51 am 08:51 Cloudy with Light Wintry Mix 30 -1 28 -2 93 93 E 17 28 29.59 1002 2 3 0.01 0.25
8:53 am 08:53 Cloudy with Light Wintry Mix 30 -1.1 28 -2.2 92 92 E 18 30 29.56 1001 2 3 0.01 0.25
9:04 am 09:04 Cloudy with Light Freezing Rain 30 -1.1 28 -2.2 92 92 E 18 30 29.58 1002 2 3 0.00 0.00
9:17 am 09:17 Cloudy with Light Snow 30 -1.1 28 -2.2 92 92 E 17 28 29.59 1002 2 3 0.00 0.00
9:20 am 09:20 Cloudy with Light Snow 30 -1.1 28 -2.2 92 92 E 17 28 29.59 1002 1 2 0.00 0.00
9:29 am 09:29 Mostly Cloudy with Light Snow 30 -1.1 28 -2.2 92 92 E 16 26 29.59 1002 1 1 0.01 0.25
9:36 am 09:36 Mostly Cloudy with Light Snow 30 -1.1 28 -2.2 92 92 E 17 28 29.58 1002 1 1 0.01 0.25
12:06 pm 12:06 Cloudy with Light Snow 31 -0.6 29 -1.7 92 92 E 17 28 29.51 999 2 2 0.00 0.00
12:23 pm 12:23 Cloudy with Light Snow 31 -0.6 28 -2.2 89 89 ENE 17 28 29.50 999 2 3 0.00 0.00
12:37 pm 12:37 Windy with Snow Likely 31 -0.6 28 -2.2 89 89 ENE 22 35 29.49 999 2 3 0.00 0.00
12:45 pm 12:45 Windy with Snow Likely 31 -0.6 29 -1.7 92 92 ENE 20 31 29.49 999 2 3 0.00 0.00
12:53 pm 12:53 Cloudy with Light Snow 31 -0.6 29 -1.7 92 92 ENE 18 30 29.46 998 3 4 0.00 0.00
1:06 pm 13:06 Cloudy with Light Snow 31 -0.6 28 -2.2 89 89 ENE 18 30 29.48 998 3 4 0.00 0.00
1:45 pm 13:45 Cloudy with Mist and Fog 31 -0.6 28 -2.2 89 89 ENE 22 35 29.47 998 6 10 0.00 0.00
1:53 pm 13:53 Cloudy 31 -0.6 28 -2.2 89 89 ENE 21 33 29.45 997 7 11 0.00 0.00
2:02 pm 14:02 Windy with Snow Likely 31 -0.6 28 -2.2 89 89 ENE 20 31 29.48 998 3 4 0.00 0.00
2:12 pm 14:12 Windy with Snow Likely 31 -0.6 28 -2.2 89 89 ENE 21 33 29.48 998 2 2 0.00 0.00
2:20 pm 14:20 Windy with Snow Likely 31 -0.6 29 -1.7 92 92 ENE 20 31 29.48 998 2 2 0.00 0.00
2:29 pm 14:29 Cloudy with Light Snow 31 -0.6 29 -1.7 92 92 ENE 18 30 29.48 998 3 4 0.00 0.00
2:36 pm 14:36 Cloudy with Mist and Fog 31 -0.6 28 -2.2 89 89 ENE 17 28 29.48 998 3 5 0.00 0.00
2:53 pm 14:53 Cloudy with Mist and Fog 31 -0.6 28 -2.2 89 89 ENE 21 33 29.46 998 4 6 0.00 0.00
3:53 pm 15:53 Cloudy 30 -1.1 28 -2.2 92 92 NE 22 35 29.46 998 7 11 0.00 0.00
4:25 pm 16:25 Cloudy 30 -1.1 28 -2.2 92 92 NE 22 35 29.51 999 10 16 0.00 0.00
4:53 pm 16:53 Cloudy 30 -1.1 27 -2.8 88 88 NE 23 37 29.48 998 10 16 0.00 0.00
5:01 pm 17:01 Cloudy 30 -1.1 27 -2.8 88 88 NE 23 37 29.53 1000 10 16 0.00 0.00
5:10 pm 17:10 Cloudy 30 -1.1 27 -2.8 88 88 NE 23 37 29.53 1000 10 16 0.00 0.00
5:53 pm 17:53 Cloudy 29 -1.7 26 -3.3 89 89 NNE 24 39 29.52 1000 7 11 0.00 0.00
6:10 pm 18:10 Cloudy with Mist and Fog 29 -1.7 26 -3.3 89 89 NNE 24 39 29.56 1001 5 8 0.00 0.00
6:53 pm 18:53 Cloudy with Mist and Fog 28 -2.2 26 -3.3 92 92 NNE 23 37 29.54 1000 5 8 0.00 0.00
7:13 pm 19:13 Cloudy with Mist and Fog 28 -2.2 26 -3.3 92 92 NNE 21 33 29.59 1002 5 8 0.00 0.00
7:50 pm 19:50 Cloudy with Mist and Fog 28 -2 27 -3 93 93 NNE 25 41 29.59 1002 5 8 0.00 0.00
7:53 pm 19:53 Cloudy with Mist and Fog 28 -2.2 25 -3.9 88 88 NNE 21 33 29.56 1001 5 8 0.00 0.00
8:25 pm 20:25 Cloudy with Mist and Fog 28 -2.2 25 -3.9 88 88 NNE 20 31 29.61 1003 5 8 0.00 0.00
8:53 pm 20:53 Cloudy 28 -2.2 25 -3.9 88 88 NNE 21 33 29.58 1002 8 13 0.00 0.00
9:09 pm 21:09 Cloudy with Mist and Fog 28 -2.2 26 -3.3 92 92 NNE 21 33 29.62 1003 5 8 0.00 0.00
9:17 pm 21:17 Cloudy with Mist and Fog 28 -2.2 26 -3.3 92 92 NNE 20 31 29.62 1003 4 6 0.00 0.00
9:38 pm 21:38 Cloudy with Mist and Fog 28 -2.2 26 -3.3 92 92 N 23 37 29.64 1004 4 6 0.00 0.00
9:53 pm 21:53 Cloudy with Mist and Fog 28 -2.2 26 -3.3 92 92 N 17 28 29.61 1003 4 6 0.00 0.00
10:06 pm 22:06 Cloudy with Mist and Fog 28 -2.2 26 -3.3 92 92 N 21 33 29.65 1004 4 6 0.00 0.00
10:53 pm 22:53 Cloudy with Mist and Fog 28 -2.2 26 -3.3 92 92 N 20 31 29.63 1004 4 6 0.00 0.00
11:20 pm 23:20 Cloudy with Mist and Fog 27 -2.8 25 -3.9 92 92 N 22 35 29.69 1005 5 8 0.00 0.00
11:38 pm 23:38 Windy with Snow Likely 26 -3.3 24 -4.4 92 92 N 24 39 29.69 1005 2 2 0.00 0.00
11:53 pm 23:53 Windy with Snow Likely 26 -3.3 24 -4.4 92 92 N 23 37 29.65 1004 3 4 0.00 0.00

Powered by AerisWeather